| time (UTC) | temp F | wind direction | speed MPH | gust MPH | rain 1hr in | rain 24hr in | rain mn in | humidity % | barometer mb |
| 20260831103034 | 50 | 103 | 0.0 | 0.0 | 0.00 | 0.01 | 0.00 | 92 | 1015.7 |
| 20260831101534 | 51 | 103 | 0.0 | 0.0 | 0.00 | 0.01 | 0.00 | 92 | 1015.7 |
| 20260831100034 | 51 | 103 | 0.0 | 0.0 | 0.00 | 0.01 | 0.00 | 92 | 1015.8 |
| 20260831094506 | 51 | 103 | 0.0 | 0.0 | 0.00 | 0.01 | 0.00 | 92 | 1016.2 |
| 20260831093008 | 51 | 103 | 0.0 | 0.0 | 0.00 | 0.01 | 0.00 | 92 | 1016.2 |
| 20260831091533 | 51 | 103 | 0.0 | 0.0 | 0.00 | 0.01 | 0.00 | 91 | 1016.4 |
| 20260831090018 | 52 | 103 | 0.0 | 0.0 | 0.00 | 0.01 | 0.00 | 91 | 1016.5 |
| 20260831084503 | 52 | 103 | 0.0 | 0.0 | 0.00 | 0.01 | 0.00 | 91 | 1016.5 |
| 20260831083007 | 52 | 103 | 0.0 | 0.0 | 0.00 | 0.01 | 0.00 | 91 | 1016.7 |
| 20260831081529 | 52 | 103 | 0.0 | 0.0 | 0.00 | 0.01 | 0.00 | 91 | 1016.9 |
| 20260831080054 | 52 | 103 | 0.0 | 0.0 | 0.00 | 0.01 | 0.00 | 91 | 1017.0 |
| 20260831074521 | 52 | 103 | 0.0 | 0.0 | 0.00 | 0.01 | 0.00 | 90 | 1017.0 |
| 20260831073009 | 53 | 103 | 0.0 | 0.0 | 0.00 | 0.01 | 0.00 | 90 | 1017.0 |
| 20260831071506 | 53 | 103 | 0.0 | 0.0 | 0.00 | 0.01 | 0.00 | 90 | 1017.1 |
| 20260831070011 | 53 | 103 | 0.0 | 0.0 | 0.00 | 0.01 | 0.00 | 90 | 1017.3 |
| 20260831064518 | 54 | 103 | 0.0 | 0.0 | 0.00 | 0.01 | 0.01 | 90 | 1017.4 |
| 20260831063035 | 54 | 103 | 0.0 | 0.0 | 0.00 | 0.01 | 0.01 | 90 | 1017.5 |
| 20260831061504 | 54 | 103 | 0.0 | 0.0 | 0.00 | 0.01 | 0.01 | 90 | 1017.5 |
| 20260831060008 | 54 | 103 | 0.0 | 0.0 | 0.00 | 0.01 | 0.01 | 89 | 1017.8 |
| 20260831054517 | 55 | 103 | 0.0 | 0.0 | 0.00 | 0.01 | 0.01 | 89 | 1017.9 |
| 20260831053029 | 55 | 103 | 0.0 | 0.0 | 0.00 | 0.01 | 0.01 | 88 | 1018.0 |
| 20260831051527 | 55 | 103 | 0.0 | 0.0 | 0.00 | 0.01 | 0.01 | 88 | 1018.2 |
| 20260831050005 | 56 | 103 | 0.0 | 0.0 | 0.00 | 0.01 | 0.01 | 87 | 1018.2 |
| 20260831044511 | 56 | 103 | 0.0 | 0.0 | 0.00 | 0.01 | 0.01 | 87 | 1018.1 |
| 20260831043028 | 57 | 103 | 0.0 | 0.0 | 0.00 | 0.01 | 0.01 | 86 | 1018.2 |
| 20260831041523 | 57 | 103 | 0.0 | 0.0 | 0.00 | 0.01 | 0.01 | 85 | 1018.3 |
| 20260831040032 | 58 | 103 | 0.0 | 0.0 | 0.00 | 0.01 | 0.01 | 84 | 1018.4 |
| 20260831034509 | 58 | 103 | 0.0 | 0.0 | 0.00 | 0.01 | 0.01 | 85 | 1018.4 |
| 20260831033038 | 59 | 103 | 0.0 | 0.0 | 0.00 | 0.01 | 0.01 | 84 | 1018.2 |
| 20260831031520 | 59 | 103 | 0.0 | 0.0 | 0.00 | 0.01 | 0.01 | 84 | 1018.3 |
| 20260831030031 | 60 | 103 | 0.0 | 0.0 | 0.00 | 0.01 | 0.01 | 82 | 1018.2 |
| 20260831024530 | 61 | 103 | 0.0 | 0.0 | 0.00 | 0.01 | 0.01 | 81 | 1018.3 |
| 20260831023010 | 61 | 103 | 0.0 | 0.0 | 0.00 | 0.06 | 0.01 | 79 | 1018.3 |
| 20260831021529 | 62 | 103 | 0.0 | 0.0 | 0.00 | 0.07 | 0.01 | 79 | 1018.4 |
| 20260831020020 | 63 | 103 | 0.0 | 0.0 | 0.00 | 0.07 | 0.01 | 78 | 1018.4 |
| 20260831014527 | 64 | 103 | 0.0 | 0.0 | 0.00 | 0.07 | 0.01 | 76 | 1018.5 |
| 20260831013032 | 65 | 103 | 0.0 | 1.0 | 0.00 | 0.07 | 0.01 | 71 | 1018.6 |
| 20260831011529 | 66 | 103 | 0.0 | 0.0 | 0.00 | 0.07 | 0.01 | 70 | 1018.7 |
| 20260831010020 | 66 | 103 | 0.0 | 0.0 | 0.00 | 0.07 | 0.01 | 67 | 1018.9 |
| 20260831004524 | 67 | 156 | 0.0 | 0.0 | 0.00 | 0.07 | 0.01 | 69 | 1018.9 |
| 20260831003031 | 68 | 156 | 0.0 | 2.0 | 0.00 | 0.07 | 0.01 | 65 | 1018.9 |
| 20260831001510 | 68 | 168 | 0.0 | 3.0 | 0.00 | 0.07 | 0.01 | 60 | 1018.8 |
| 20260831000014 | 69 | 192 | 0.0 | 3.0 | 0.00 | 0.07 | 0.01 | 60 | 1018.8 |
| 20260830234526 | 68 | 81 | 0.0 | 2.0 | 0.00 | 0.07 | 0.01 | 66 | 1019.1 |
| 20260830233033 | 66 | 201 | 0.0 | 0.0 | 0.00 | 0.07 | 0.01 | 71 | 1019.2 |
| 20260830231530 | 67 | 201 | 0.0 | 0.0 | 0.00 | 0.07 | 0.01 | 68 | 1019.2 |
| 20260830230014 | 67 | 201 | 0.0 | 2.0 | 0.00 | 0.07 | 0.01 | 66 | 1019.3 |
| 20260830224517 | 67 | 113 | 0.0 | 2.0 | 0.00 | 0.07 | 0.01 | 60 | 1019.4 |
| 20260830223035 | 67 | 23 | 0.0 | 0.0 | 0.00 | 0.07 | 0.01 | 64 | 1019.6 |
| 20260830221530 | 67 | 23 | 0.0 | 2.0 | 0.00 | 0.07 | 0.01 | 65 | 1019.6 |
| 20260830220038 | 68 | 83 | 0.0 | 2.0 | 0.00 | 0.07 | 0.01 | 63 | 1019.6 |
| 20260830214514 | 67 | 244 | 3.0 | 5.0 | 0.00 | 0.07 | 0.01 | 59 | 1019.7 |
| 20260830213021 | 66 | 94 | 0.0 | 4.0 | 0.00 | 0.07 | 0.01 | 63 | 1019.8 |
| 20260830211525 | 65 | 211 | 0.0 | 2.0 | 0.00 | 0.07 | 0.01 | 66 | 1020.2 |
| 20260830210033 | 65 | 355 | 0.0 | 0.0 | 0.00 | 0.07 | 0.01 | 66 | 1020.2 |
| 20260830204536 | 66 | 355 | 0.0 | 2.0 | 0.00 | 0.07 | 0.01 | 63 | 1020.2 |
| 20260830203015 | 67 | 88 | 0.0 | 4.0 | 0.00 | 0.07 | 0.01 | 61 | 1020.4 |
| 20260830201526 | 67 | 116 | 0.0 | 5.0 | 0.00 | 0.07 | 0.01 | 64 | 1020.6 |
| 20260830200032 | 65 | 149 | 1.0 | 5.0 | 0.00 | 0.07 | 0.01 | 63 | 1020.5 |
| 20260830194531 | 64 | 98 | 0.0 | 3.0 | 0.00 | 0.07 | 0.01 | 68 | 1020.6 |
| 20260830193032 | 64 | 67 | 0.0 | 2.0 | 0.00 | 0.07 | 0.01 | 69 | 1020.7 |
| 20260830191522 | 63 | 23 | 0.0 | 3.0 | 0.00 | 0.07 | 0.01 | 72 | 1020.7 |
| 20260830190029 | 62 | 331 | 0.0 | 1.0 | 0.00 | 0.07 | 0.01 | 80 | 1020.9 |
| 20260830184529 | 62 | 352 | 0.0 | 0.0 | 0.00 | 0.07 | 0.01 | 79 | 1020.8 |
| 20260830183033 | 63 | 352 | 0.0 | 5.0 | 0.00 | 0.07 | 0.01 | 72 | 1020.9 |
| 20260830181533 | 63 | 148 | 1.0 | 5.0 | 0.00 | 0.07 | 0.01 | 72 | 1020.8 |
| 20260830180029 | 62 | 30 | 0.0 | 3.0 | 0.00 | 0.07 | 0.01 | 75 | 1020.8 |
| 20260830174548 | 60 | 145 | 0.0 | 1.0 | 0.00 | 0.08 | 0.01 | 83 | 1020.9 |
| 20260830173035 | 58 | 146 | 0.0 | 0.0 | 0.00 | 0.08 | 0.01 | 87 | 1021.0 |
| 20260830171539 | 58 | 146 | 0.0 | 0.0 | 0.00 | 0.08 | 0.01 | 88 | 1020.9 |
| 20260830170034 | 57 | 146 | 0.0 | 0.0 | 0.00 | 0.08 | 0.01 | 88 | 1020.8 |
| 20260830164528 | 58 | 146 | 0.0 | 0.0 | 0.00 | 0.08 | 0.01 | 88 | 1020.8 |
| 20260830163050 | 58 | 169 | 0.0 | 1.0 | 0.00 | 0.08 | 0.01 | 89 | 1020.9 |
| 20260830161529 | 57 | 146 | 0.0 | 3.0 | 0.00 | 0.08 | 0.01 | 89 | 1020.9 |
| 20260830160035 | 57 | 198 | 0.0 | 1.0 | 0.00 | 0.08 | 0.01 | 91 | 1021.0 |
| 20260830154524 | 56 | 198 | 0.0 | 0.0 | 0.00 | 0.09 | 0.01 | 92 | 1020.8 |
| 20260830153033 | 56 | 198 | 0.0 | 0.0 | 0.00 | 0.10 | 0.01 | 93 | 1020.9 |
| 20260830151541 | 55 | 198 | 0.0 | 1.0 | 0.00 | 0.11 | 0.01 | 93 | 1020.8 |
| 20260830150033 | 55 | 223 | 0.0 | 0.0 | 0.00 | 0.12 | 0.01 | 94 | 1020.8 |
| 20260830144536 | 54 | 223 | 0.0 | 0.0 | 0.00 | 0.13 | 0.01 | 94 | 1020.8 |
| 20260830143029 | 54 | 223 | 0.0 | 0.0 | 0.00 | 0.14 | 0.01 | 94 | 1020.7 |
| 20260830141526 | 53 | 223 | 0.0 | 0.0 | 0.00 | 0.15 | 0.01 | 93 | 1020.6 |
| 20260830140040 | 53 | 223 | 0.0 | 0.0 | 0.00 | 0.23 | 0.01 | 93 | 1020.5 |
| 20260830134534 | 53 | 223 | 0.0 | 0.0 | 0.00 | 0.33 | 0.01 | 93 | 1020.4 |
| 20260830133032 | 53 | 223 | 0.0 | 0.0 | 0.00 | 0.40 | 0.01 | 93 | 1020.4 |
| 20260830131530 | 53 | 223 | 0.0 | 0.0 | 0.00 | 0.46 | 0.01 | 93 | 1020.5 |
| 20260830130031 | 53 | 223 | 0.0 | 0.0 | 0.00 | 0.47 | 0.01 | 93 | 1020.4 |
| 20260830124516 | 53 | 223 | 0.0 | 0.0 | 0.00 | 0.51 | 0.01 | 93 | 1020.4 |
| 20260830123020 | 54 | 223 | 0.0 | 0.0 | 0.00 | 0.54 | 0.01 | 93 | 1020.4 |
| 20260830121523 | 54 | 223 | 0.0 | 0.0 | 0.00 | 0.56 | 0.01 | 93 | 1020.5 |
| 20260830120031 | 54 | 223 | 0.0 | 0.0 | 0.00 | 0.58 | 0.01 | 93 | 1020.5 |
| 20260830114521 | 54 | 223 | 0.0 | 0.0 | 0.01 | 0.63 | 0.01 | 93 | 1020.5 |
| 20260830113017 | 54 | 223 | 0.0 | 0.0 | 0.01 | 0.67 | 0.01 | 93 | 1020.4 |
| 20260830111520 | 54 | 223 | 0.0 | 0.0 | 0.01 | 0.69 | 0.01 | 93 | 1020.3 |
| 20260830110039 | 54 | 222 | 0.0 | 3.0 | 0.01 | 0.69 | 0.01 | 93 | 1020.2 |
| 20260830104536 | 54 | 92 | 0.0 | 0.0 | 0.00 | 0.68 | 0.00 | 93 | 1020.3 |